Stations météo

réclame
Mon MeteoGroup
Cozzo Spadaro, Italie (16480): Température de l'air & dewpoint: 09.11.2018 22:00:00 - 15.11.2018 22:00:00 (CET)Cozzo Spadaro, Italie (16480): Vitesse du vent: 09.11.2018 22:00:00 - 15.11.2018 22:00:00 (CET)Cozzo Spadaro, Italie (16480): Direction du vent: 09.11.2018 22:00:00 - 15.11.2018 22:00:00 (CET)Cozzo Spadaro, Italie (16480): reduced air pressure: 09.11.2018 22:00:00 - 15.11.2018 22:00:00 (CET)Cozzo Spadaro, Italie (16480): visibility: 09.11.2018 22:00:00 - 15.11.2018 22:00:00 (CET)Cozzo Spadaro, Italie (16480): Ensoleillement: 09.11.2018 22:00:00 - 15.11.2018 22:00:00 (CET)
Date & Time tt [°C] td [°C] ff [km/h] ff [knt] dd ppp [hPa] vv [km] sd [min]
15.11.2018 22:00:00 - - - - - - - -
15.11.2018 21:00:00 - - - - - - - -
15.11.2018 20:00:00 - - - - - - - -
15.11.2018 19:00:00 17,6 12,3 2 1 WSW 1018,9 20 -
15.11.2018 18:00:00 18,0 12,5 2 1 WSW 1019,0 20 -
15.11.2018 17:00:00 18,4 12,6 2 1 WSW 1019,1 20 0
15.11.2018 16:00:00 19,0 12,7 2 1 SW 1019,5 20 0
15.11.2018 15:00:00 19,2 12,7 2 1 S 1019,8 20 60
15.11.2018 14:00:00 19,4 12,7 2 1 S 1020,0 20 42
15.11.2018 13:00:00 19,6 12,6 2 1 SSE 1020,0 20 60
15.11.2018 12:00:00 19,4 12,7 4 2 E 1021,1 20 60
15.11.2018 11:00:00 19,0 13,0 2 1 E 1021,3 20 60
15.11.2018 10:00:00 18,8 13,9 4 2 NE 1021,1 20 60
15.11.2018 09:00:00 18,4 13,7 0 0 N 1021,1 20 60
15.11.2018 08:00:00 16,0 12,2 2 1 NNW 1021,2 20 18
15.11.2018 07:00:00 15,0 11,4 8 4 N 1021,1 20 0
15.11.2018 06:00:00 - - - - - - - -
15.11.2018 05:00:00 - - - - - - - -
15.11.2018 04:00:00 - - - - - - - -
15.11.2018 03:00:00 - - - - - - - -
15.11.2018 02:00:00 - - - - - - - -
15.11.2018 01:00:00 - - - - - - - -
15.11.2018 00:00:00 - - - - - - - -
14.11.2018 23:00:00 - - - - - - - -
14.11.2018 22:00:00 - - - - - - - -
14.11.2018 21:00:00 - - - - - - - -
14.11.2018 20:00:00 - - - - - - - -
14.11.2018 19:00:00 18,0 11,8 8 4 NW 1022,1 18 0
14.11.2018 18:00:00 18,6 10,7 2 1 NNW 1022,1 20 0
14.11.2018 17:00:00 19,0 12,5 2 1 ENE 1022,1 25 36
14.11.2018 16:00:00 19,8 13,5 5 3 ENE 1022,3 20 60
14.11.2018 15:00:00 20,0 13,2 8 4 ENE 1022,4 25 60
14.11.2018 14:00:00 20,0 12,7 5 3 ENE 1022,9 25 60
14.11.2018 13:00:00 20,0 12,5 5 3 E 1023,2 25 60
14.11.2018 12:00:00 20,0 12,5 5 3 ENE 1024,1 25 60
14.11.2018 11:00:00 20,0 13,2 8 4 NE 1024,6 25 60
14.11.2018 10:00:00 19,4 13,1 5 3 NE 1024,4 20 60
14.11.2018 09:00:00 17,8 12,3 4 2 N 1024,2 25 60
14.11.2018 08:00:00 15,6 11,6 5 3 N 1024,2 20 18
14.11.2018 07:00:00 15,2 11,6 8 4 N 1024,2 20 0
14.11.2018 06:00:00 - - - - - - - -
14.11.2018 05:00:00 - - - - - - - -
14.11.2018 04:00:00 - - - - - - - -
14.11.2018 03:00:00 - - - - - - - -
14.11.2018 02:00:00 - - - - - - - -
14.11.2018 01:00:00 - - - - - - - -
14.11.2018 00:00:00 - - - - - - - -
13.11.2018 23:00:00 - - - - - - - -
13.11.2018 22:00:00 - - - - - - - -
13.11.2018 21:00:00 - - - - - - - -
13.11.2018 20:00:00 - - - - - - - -
13.11.2018 19:00:00 18,2 13,3 2 1 NNW 1025,1 20 -
13.11.2018 18:00:00 18,6 13,5 2 1 E 1024,9 20 0
13.11.2018 17:00:00 19,2 13,6 8 4 E 1024,5 20 48
13.11.2018 16:00:00 20,2 14,3 8 4 E 1024,5 25 60
13.11.2018 15:00:00 20,6 14,5 11 6 E 1024,4 25 60
13.11.2018 14:00:00 20,8 14,7 8 4 E 1025,1 25 60
13.11.2018 13:00:00 20,6 14,3 9 5 NE 1025,4 25 60
13.11.2018 12:00:00 20,4 14,3 9 5 ENE 1026,2 30 60
13.11.2018 11:00:00 20,2 15,4 9 5 NE 1026,2 25 60
13.11.2018 10:00:00 19,8 15,3 9 5 NE 1026,2 20 60
13.11.2018 09:00:00 18,8 14,9 5 3 N 1026,1 20 42
13.11.2018 08:00:00 17,0 13,9 8 4 NNE 1025,4 20 0
13.11.2018 07:00:00 17,0 13,7 8 4 NNE 1025,2 20 0
13.11.2018 06:00:00 - - - - - - - -
13.11.2018 05:00:00 - - - - - - - -
13.11.2018 04:00:00 - - - - - - - -
13.11.2018 03:00:00 - - - - - - - -
13.11.2018 02:00:00 - - - - - - - -
13.11.2018 01:00:00 - - - - - - - -
13.11.2018 00:00:00 - - - - - - - -
12.11.2018 23:00:00 - - - - - - - -
12.11.2018 22:00:00 - - - - - - - -
12.11.2018 21:00:00 - - - - - - - -
12.11.2018 20:00:00 - - - - - - - -
12.11.2018 19:00:00 19,2 14,3 13 7 E 1024,1 20 -
12.11.2018 18:00:00 19,6 14,8 13 7 ESE 1024,1 20 -
12.11.2018 17:00:00 20,6 15,4 11 6 E 1023,5 20 12
12.11.2018 16:00:00 21,0 15,3 15 8 E 1023,1 20 60
12.11.2018 15:00:00 21,0 15,3 16 9 E 1023,0 20 60
12.11.2018 14:00:00 - - - - - - - -
12.11.2018 13:00:00 21,4 15,9 18 10 E 1023,2 20 60
12.11.2018 12:00:00 21,6 15,4 16 9 E 1023,3 20 60
12.11.2018 11:00:00 21,8 15,9 16 9 E 1023,2 20 60
12.11.2018 10:00:00 21,6 15,7 15 8 E 1023,0 20 60
12.11.2018 09:00:00 20,8 15,8 15 8 E 1023,0 20 18
12.11.2018 08:00:00 20,2 15,6 16 9 E 1022,0 20 18
12.11.2018 07:00:00 20,0 16,0 18 10 E 1021,1 20 0
12.11.2018 06:00:00 - - - - - - - -
12.11.2018 05:00:00 - - - - - - - -
12.11.2018 04:00:00 - - - - - - - -
12.11.2018 03:00:00 - - - - - - - -
12.11.2018 02:00:00 - - - - - - - -
12.11.2018 01:00:00 - - - - - - - -
12.11.2018 00:00:00 - - - - - - - -
11.11.2018 23:00:00 - - - - - - - -
11.11.2018 22:00:00 - - - - - - - -
11.11.2018 21:00:00 - - - - - - - -
11.11.2018 20:00:00 - - - - - - - -
11.11.2018 19:00:00 20,4 16,2 24 13 E 1018,8 20 -
11.11.2018 18:00:00 20,4 16,0 22 12 ENE 1018,0 20 -
11.11.2018 17:00:00 20,6 16,0 24 13 ENE 1018,0 20 30
11.11.2018 16:00:00 21,0 15,6 24 13 E 1017,2 20 60
11.11.2018 15:00:00 21,0 15,5 26 14 E 1017,0 25 60
11.11.2018 14:00:00 21,0 15,5 26 14 E 1016,9 25 60
11.11.2018 13:00:00 21,2 16,0 26 14 E 1016,9 25 60
11.11.2018 12:00:00 21,0 16,0 22 12 E 1016,5 25 60
11.11.2018 11:00:00 20,6 14,9 22 12 E 1016,0 20 60
11.11.2018 10:00:00 20,0 14,6 24 13 E 1016,0 20 60
11.11.2018 09:00:00 20,0 14,8 24 13 E 1015,0 20 30
11.11.2018 08:00:00 18,8 14,5 28 15 E 1014,4 20 0
11.11.2018 07:00:00 18,2 13,9 22 12 E 1014,1 20 0
11.11.2018 06:00:00 - - - - - - - -
11.11.2018 05:00:00 - - - - - - - -
11.11.2018 04:00:00 - - - - - - - -
11.11.2018 03:00:00 - - - - - - - -
11.11.2018 02:00:00 - - - - - - - -
11.11.2018 01:00:00 - - - - - - - -
11.11.2018 00:00:00 - - - - - - - -
10.11.2018 23:00:00 - - - - - - - -
10.11.2018 22:00:00 - - - - - - - -
10.11.2018 21:00:00 - - - - - - - -
10.11.2018 20:00:00 - - - - - - - -
10.11.2018 19:00:00 15,2 11,2 4 2 NNE 1013,1 12 -
10.11.2018 18:00:00 15,2 9,1 4 2 SSW 1012,1 15 -
10.11.2018 17:00:00 15,0 10,2 11 6 NW 1012,7 6 0
10.11.2018 16:00:00 15,4 12,0 16 9 WNW 1012,7 4,0 0
10.11.2018 15:00:00 15,6 12,4 24 13 W 1012,1 4,0 0
10.11.2018 14:00:00 18,6 14,9 15 8 E 1012,2 10 12
10.11.2018 13:00:00 19,8 15,0 15 8 ESE 1013,0 12 12
10.11.2018 12:00:00 19,6 14,4 21 11 ESE 1014,0 10 0
10.11.2018 11:00:00 20,0 14,8 13 7 E 1014,5 20 0
10.11.2018 10:00:00 19,6 14,0 13 7 ESE 1014,9 20 30
10.11.2018 09:00:00 18,6 12,8 9 5 ESE 1014,9 25 12
10.11.2018 08:00:00 18,4 13,7 4 2 E 1014,9 25 12
10.11.2018 07:00:00 16,4 12,5 4 2 NE 1014,9 25 0
10.11.2018 06:00:00 - - - - - - - -
10.11.2018 05:00:00 - - - - - - - -
10.11.2018 04:00:00 - - - - - - - -
10.11.2018 03:00:00 - - - - - - - -
10.11.2018 02:00:00 - - - - - - - -
10.11.2018 01:00:00 - - - - - - - -
10.11.2018 00:00:00 - - - - - - - -
09.11.2018 23:00:00 - - - - - - - -
09.11.2018 22:00:00 - - - - - - - -

tt = Température de l'air
td = dewpoint
ff = Vitesse du vent
dd = Direction du vent
ppp = reduced air pressure
vv = visibility
sd = Ensoleillement

stations d'obs. à proximité